Wind_Speed
5 6 7 7 7 7 8 8 9 9 10 10 10 10 10 10 9 9 9 8 8 8 8 7 7 7 7 7 7 7 6 6 6 6 6 6 5 5 5 5 5 5 5
6 6 7 8 9 9 9 10 10 11 11 11 11 11 10 10 10 10 10 10 10 9 9 9 9 8 8 8 8 8 8 7 7 7 7 6 6 6 6 6 6 5 6
8 8 9 10 10 11 11 11 11 12 12 12 12 12 12 11 11 11 11 11 11 10 10 10 10 10 10 10 10 9 9 9 8 8 8 7 7 7 7 7 7 6 6
10 10 10 11 11 12 12 12 12 12 13 13 13 13 13 13 12 12 12 12 11 11 11 11 11 11 11 11 11 11 10 10 9 9 9 8 8 8 8 8 8 8 8
11 11 12 12 12 12 13 13 13 14 14 14 14 14 13 13 13 13 13 13 13 13 13 13 13 12 12 12 12 12 12 12 11 11 11 10 9 9 9 9 9 9 9
12 12 12 13 13 13 14 14 14 15 15 15 15 15 14 14 14 14 14 14 14 14 14 14 13 13 13 13 13 13 14 14 14 13 12 12 11 11 11 10 10 10 10
13 13 13 14 14 14 14 15 15 15 15 15 15 15 15 15 15 15 14 14 14 15 15 15 14 14 14 14 14 14 15 15 15 15 14 14 13 14 14 13 12 12 11
15 15 15 15 15 15 15 16 16 16 17 16 16 16 16 16 16 16 15 15 15 15 16 15 15 15 15 15 15 16 16 16 16 16 16 16 16 16 16 15 15 14 13
16 16 16 16 16 16 16 17 17 18 18 17 17 17 17 17 17 17 16 17 17 16 16 16 17 17 17 17 17 18 18 18 18 18 17 17 18 18 17 17 17 16 15
17 17 16 17 17 17 17 18 18 18 18 18 18 17 18 18 18 18 18 18 18 18 18 18 18 18 18 19 19 20 20 19 19 19 18 19 20 19 19 19 19 18 17
18 18 17 17 17 17 17 18 18 19 19 18 19 19 19 19 20 20 19 19 19 19 19 19 19 20 20 20 20 20 21 21 21 21 20 21 21 20 20 20 20 20 19
18 18 18 18 18 17 18 19 19 20 20 20 20 20 20 21 21 21 21 21 21 21 21 21 21 21 21 21 22 22 22 22 22 22 22 23 23 23 23 22 22 21 21
19 19 19 18 18 18 19 20 21 22 22 21 21 21 21 22 22 22 22 23 23 23 23 23 23 22 22 22 22 22 23 23 23 23 23 24 25 24 24 23 23 23 22
19 20 19 19 19 20 20 21 22 23 23 22 22 22 23 23 23 24 24 24 24 24 24 25 24 24 24 24 23 23 23 24 24 24 24 23 24 24 23 24 24 23 23
21 21 21 20 20 21 21 22 22 23 23 23 23 24 25 25 25 25 26 26 26 26 26 26 26 25 26 25 24 24 25 25 25 26 25 25 25 26 25 25 25 24 24
21 21 21 20 20 21 22 23 23 23 24 25 26 26 27 27 27 27 27 28 28 28 28 28 27 26 26 26 26 26 26 26 26 26 27 26 25 25 26 25 25 25 25
20 20 20 20 21 22 23 24 24 25 26 26 27 28 28 29 29 29 29 29 29 30 29 29 29 28 27 26 27 27 27 27 27 26 25 26 25 26 26 26 26 25 25
21 20 20 21 22 24 24 25 26 26 27 28 29 29 31 31 30 31 30 30 30 30 30 30 30 29 28 28 28 29 28 28 28 27 26 26 25 25 26 27 27 26 26
21 21 21 22 24 25 26 26 27 27 29 30 30 31 31 31 31 31 31 30 31 31 31 31 31 31 30 30 30 29 29 28 28 29 28 28 27 27 26 27 27 27 26
22 22 23 24 25 26 27 28 28 29 30 31 31 31 31 32 32 31 31 31 31 31 31 31 31 31 31 30 30 30 29 29 29 29 29 28 27 27 27 27 27 27 27
23 23 24 26 26 27 28 28 29 30 31 31 32 32 32 32 32 32 32 31 31 31 31 31 30 31 31 31 31 31 31 31 30 29 28 28 28 27 27 27 27 27 27
23 24 26 27 27 28 29 30 30 30 31 32 32 32 31 31 31 32 31 31 31 30 30 30 30 31 31 31 31 31 31 31 31 30 29 29 28 28 28 28 28 28 27
24 25 26 27 27 29 30 29 30 31 31 31 31 30 30 31 30 30 30 30 30 30 30 30 29 30 30 30 30 30 30 30 30 30 29 29 29 27 27 28 28 27 27
24 25 26 27 28 28 28 28 29 31 31 30 30 30 30 29 29 29 29 30 31 31 30 30 28 28 28 28 28 29 29 29 28 28 28 27 27 26 26 26 26 26 26
24 25 26 27 27 27 27 28 29 30 30 29 29 29 29 29 29 29 29 30 30 30 29 29 28 28 28 28 27 27 27 28 28 27 27 27 27 27 26 26 26 26 25
24 25 26 26 26 26 27 27 28 28 28 28 29 29 30 30 30 30 30 30 29 28 28 28 27 27 27 27 26 25 25 25 26 26 26 27 26 26 25 24 25 25 25
Wind_Direction
287 286 284 286 290 288 288 290 294 297 297 295 295 294 293 293 293 293 294 293 291 291 290 290 290 290 291 292 295 298 301 300 303 304 302 300 293 289 289 292 293 293 287
287 287 285 286 287 286 286 290 292 293 294 294 294 292 291 291 290 291 293 293 291 289 288 288 287 287 288 287 288 289 290 289 291 292 293 292 288 283 284 285 285 285 283
285 285 283 284 285 285 287 289 291 291 291 291 292 290 289 288 288 288 288 289 289 288 287 287 287 285 284 284 283 283 283 283 283 284 284 282 282 281 280 282 281 279 279
284 285 285 284 286 287 287 288 288 290 290 291 290 290 290 290 289 289 288 287 286 286 286 286 286 285 284 283 281 279 278 278 277 278 276 276 276 280 280 280 279 279 279
281 281 283 284 286 287 287 287 287 288 290 291 290 290 291 292 291 291 290 287 285 285 285 285 285 284 284 282 281 278 276 274 273 272 271 273 272 273 274 274 275 278 280
278 277 282 285 287 288 287 287 287 288 289 290 291 291 291 290 290 291 291 288 286 284 283 283 282 283 282 281 280 278 276 275 273 271 270 272 269 270 269 270 272 276 280
282 278 281 286 289 289 289 289 290 292 291 294 293 291 290 291 291 291 291 290 288 286 283 281 280 281 280 279 280 279 277 275 275 273 270 268 269 269 267 268 272 274 274
286 284 285 287 288 289 290 290 290 292 292 294 292 289 288 290 292 292 291 290 289 286 283 281 280 280 279 277 278 280 279 277 276 273 270 268 267 267 269 269 270 271 272
287 285 286 286 288 289 289 288 289 291 293 293 291 288 288 288 290 289 290 291 289 287 283 281 280 280 280 277 276 278 277 277 276 275 273 271 269 266 267 269 269 268 268
285 286 287 287 288 287 287 287 287 289 292 292 291 290 290 290 289 289 289 289 288 286 283 281 281 281 280 279 278 278 277 276 275 273 270 269 268 267 266 266 267 267 265
282 285 290 291 290 290 291 291 290 290 290 291 292 291 291 291 290 290 289 288 288 285 282 281 281 280 279 279 279 278 277 275 274 272 270 267 266 266 266 266 265 265 265
289 291 293 293 293 294 295 294 292 291 291 292 292 294 294 293 292 290 289 288 288 287 285 282 281 280 279 278 278 276 275 274 274 273 272 270 268 268 265 265 264 263 262
289 293 294 294 293 294 297 298 296 294 294 294 293 293 294 294 294 293 292 289 289 289 286 283 282 280 279 279 278 275 275 275 276 275 274 273 271 268 264 265 265 263 262
292 295 296 296 294 297 299 300 299 297 296 295 294 295 296 296 296 295 294 292 291 290 288 286 283 281 279 278 277 275 274 274 276 275 275 274 273 269 267 264 265 264 263
294 295 295 293 294 298 301 303 302 299 297 297 296 296 295 295 295 294 292 292 292 290 290 287 286 283 280 278 277 274 273 273 274 275 275 275 273 271 267 264 265 264 261
293 294 294 292 296 300 302 304 304 301 299 299 299 298 296 296 295 295 294 292 292 291 289 287 286 282 279 280 279 276 275 273 272 274 275 275 274 271 267 265 265 265 262
293 293 295 294 298 300 301 301 301 303 302 301 301 300 299 297 296 295 293 292 292 291 289 287 285 281 279 279 279 278 276 274 272 272 273 274 274 271 267 266 266 265 263
293 294 295 295 296 298 299 300 301 300 301 301 301 300 300 297 294 294 293 291 290 291 290 287 284 282 279 278 277 277 277 276 273 270 273 273 272 269 267 266 266 265 263
290 292 293 294 295 296 296 298 298 298 298 298 299 299 298 297 296 295 294 292 290 289 291 289 286 282 280 278 277 276 277 277 273 270 272 272 270 269 268 266 266 264 263
289 291 292 293 295 295 295 295 296 297 297 297 297 297 297 296 295 294 293 292 290 289 290 289 286 283 280 278 276 274 275 275 274 273 272 270 269 269 268 266 265 264 262
288 289 291 293 294 295 296 296 296 297 298 298 298 298 297 297 295 292 291 291 290 290 290 289 286 284 281 278 276 274 273 274 273 273 273 271 268 267 266 265 264 263 262
287 289 291 294 295 295 295 296 297 297 298 299 298 298 298 299 297 293 291 290 290 290 290 288 287 285 282 279 277 275 274 273 272 272 271 269 267 267 265 266 264 261 262
287 290 292 294 295 296 298 298 299 298 298 298 298 299 300 301 300 297 294 294 291 290 289 287 287 286 283 279 277 276 274 273 271 270 269 267 266 265 265 266 263 260 260
289 291 292 295 297 297 297 299 300 300 299 300 301 301 301 301 300 298 296 296 295 292 290 288 286 285 283 281 278 276 273 272 270 268 267 266 264 263 263 263 260 259 260
291 292 293 294 297 298 298 299 301 302 302 303 304 303 303 303 301 301 298 297 296 293 289 288 286 284 283 282 280 277 273 270 269 267 265 265 265 264 262 262 260 257 256
291 293 295 297 298 299 300 300 302 303 304 304 305 305 304 303 302 302 301 299 297 292 288 287 285 284 283 281 280 278 274 270 267 265 264 263 263 261 261 261 260 258 256
Height
5907 5906 5906 5906 5905 5904 5904 5903 5903 5902 5901 5900 5900 5899 5898 5897 5896 5895 5894 5893 5893 5892 5891 5890 5889 5889 5888 5888 5887 5886 5886 5885 5885 5884 5884 5883 5883 5883 5883 5883 5883 5883 5883
5906 5905 5905 5905 5904 5903 5903 5902 5901 5901 5900 5899 5898 5897 5896 5896 5895 5894 5893 5892 5891 5890 5890 5889 5888 5887 5887 5887 5886 5885 5884 5884 5884 5883 5883 5882 5882 5882 5882 5882 5881 5881 5881
5905 5904 5904 5903 5903 5902 5901 5901 5900 5899 5898 5897 5896 5895 5895 5894 5893 5892 5891 5890 5889 5889 5888 5887 5887 5886 5886 5885 5885 5884 5883 5883 5883 5882 5882 5881 5881 5880 5880 5880 5880 5880 5880
5904 5903 5903 5902 5901 5900 5900 5899 5898 5897 5896 5895 5894 5893 5893 5892 5891 5890 5889 5888 5887 5887 5886 5885 5885 5884 5884 5883 5883 5882 5882 5881 5881 5880 5880 5880 5879 5879 5879 5879 5879 5878 5878
5902 5902 5901 5900 5899 5899 5898 5897 5896 5895 5894 5893 5892 5891 5890 5889 5888 5887 5887 5886 5885 5884 5884 5883 5883 5882 5882 5881 5881 5880 5880 5879 5879 5878 5878 5878 5877 5877 5877 5877 5877 5877 5877
5900 5900 5899 5898 5897 5896 5896 5895 5894 5893 5892 5891 5890 5889 5888 5887 5886 5885 5884 5883 5883 5882 5881 5881 5880 5880 5879 5879 5878 5878 5877 5877 5876 5876 5876 5876 5875 5875 5875 5875 5875 5875 5875
5898 5897 5897 5896 5895 5894 5893 5893 5891 5890 5889 5888 5887 5886 5885 5884 5883 5882 5881 5881 5880 5879 5879 5878 5877 5877 5876 5876 5875 5875 5874 5874 5873 5873 5874 5873 5873 5873 5873 5873 5873 5872 5872
5896 5895 5894 5893 5893 5892 5891 5890 5889 5888 5887 5885 5884 5883 5882 5881 5880 5879 5879 5878 5877 5876 5876 5875 5874 5874 5873 5873 5872 5872 5871 5871 5870 5870 5871 5870 5870 5870 5870 5870 5870 5870 5870
5893 5892 5891 5891 5890 5889 5888 5887 5886 5885 5883 5882 5881 5880 5879 5878 5877 5876 5875 5874 5874 5873 5872 5871 5871 5870 5870 5869 5869 5868 5868 5867 5867 5867 5867 5867 5867 5867 5867 5867 5867 5867 5867
5890 5889 5889 5887 5886 5885 5884 5883 5882 5881 5880 5879 5878 5877 5876 5875 5874 5873 5872 5871 5870 5869 5868 5868 5867 5867 5866 5866 5865 5864 5864 5864 5863 5863 5863 5863 5862 5863 5863 5863 5863 5864 5864
5886 5886 5885 5884 5883 5882 5881 5880 5879 5878 5877 5876 5875 5874 5872 5871 5870 5869 5868 5867 5866 5865 5864 5864 5863 5863 5862 5861 5861 5860 5859 5859 5859 5859 5859 5858 5857 5857 5857 5858 5859 5860 5860
5883 5883 5882 5881 5880 5879 5878 5877 5876 5875 5874 5873 5872 5870 5869 5868 5867 5865 5864 5863 5861 5861 5860 5859 5859 5858 5857 5857 5856 5855 5854 5854 5854 5854 5854 5854 5853 5853 5854 5854 5855 5855 5856
5881 5880 5879 5878 5877 5876 5875 5874 5873 5872 5870 5869 5868 5866 5865 5863 5862 5861 5859 5858 5857 5856 5855 5854 5853 5853 5852 5852 5851 5850 5849 5849 5849 5849 5849 5849 5848 5848 5849 5850 5850 5850 5851
5877 5877 5876 5875 5874 5873 5872 5870 5869 5868 5866 5865 5863 5862 5860 5859 5857 5856 5855 5853 5852 5851 5849 5848 5847 5847 5846 5846 5845 5845 5844 5844 5844 5843 5843 5844 5843 5843 5843 5844 5845 5845 5846
5874 5873 5872 5872 5871 5869 5868 5867 5865 5863 5862 5861 5859 5857 5856 5854 5853 5851 5849 5848 5847 5845 5843 5842 5841 5841 5840 5840 5839 5839 5839 5838 5838 5838 5838 5838 5838 5838 5838 5839 5839 5840 5840
5871 5870 5869 5868 5867 5866 5864 5863 5861 5859 5858 5856 5854 5852 5851 5849 5847 5845 5843 5842 5840 5839 5838 5836 5835 5834 5834 5833 5833 5833 5833 5833 5832 5832 5831 5832 5832 5832 5832 5833 5833 5834 5835
5867 5866 5865 5864 5863 5862 5861 5859 5857 5855 5853 5852 5850 5847 5845 5843 5841 5839 5837 5835 5834 5832 5831 5830 5828 5827 5827 5826 5826 5826 5826 5826 5826 5825 5825 5826 5825 5825 5826 5827 5827 5828 5828
5863 5862 5862 5861 5860 5858 5857 5855 5853 5851 5849 5847 5844 5842 5840 5837 5835 5833 5831 5828 5827 5825 5824 5822 5821 5820 5820 5819 5819 5819 5819 5819 5819 5819 5819 5819 5819 5820 5820 5821 5821 5822 5822
5860 5859 5858 5857 5855 5854 5852 5850 5848 5846 5844 5842 5839 5837 5834 5832 5829 5826 5824 5822 5820 5818 5816 5815 5813 5813 5812 5812 5811 5812 5812 5812 5812 5813 5813 5813 5813 5813 5814 5814 5815 5816 5816
5856 5855 5854 5852 5851 5849 5847 5845 5843 5841 5839 5836 5833 5830 5828 5825 5822 5819 5817 5815 5812 5810 5809 5807 5806 5805 5804 5804 5803 5804 5804 5804 5804 5805 5805 5806 5806 5806 5807 5807 5808 5809 5810
5851 5850 5849 5848 5846 5844 5842 5840 5838 5835 5833 5830 5827 5824 5821 5817 5815 5812 5810 5808 5805 5803 5801 5799 5798 5797 5796 5795 5796 5796 5797 5796 5796 5797 5798 5798 5799 5799 5800 5801 5802 5803 5803
5847 5846 5845 5843 5841 5839 5836 5834 5832 5829 5827 5824 5820 5817 5814 5811 5808 5805 5803 5800 5798 5795 5793 5792 5790 5789 5788 5787 5787 5788 5789 5790 5789 5790 5790 5791 5792 5792 5793 5794 5795 5796 5797
5842 5841 5840 5838 5836 5833 5831 5828 5825 5823 5820 5817 5814 5811 5808 5804 5800 5797 5795 5793 5790 5788 5786 5784 5782 5781 5779 5778 5778 5779 5780 5781 5781 5782 5782 5783 5784 5785 5786 5787 5787 5789 5790
5838 5836 5834 5833 5830 5828 5825 5822 5819 5816 5814 5811 5808 5804 5801 5797 5794 5790 5788 5785 5783 5780 5778 5776 5775 5773 5772 5771 5770 5770 5771 5772 5773 5774 5775 5776 5777 5778 5778 5779 5781 5782 5783
5833 5831 5829 5827 5825 5822 5819 5817 5814 5810 5807 5804 5801 5797 5794 5790 5787 5784 5781 5778 5775 5773 5770 5768 5767 5765 5764 5763 5763 5763 5763 5764 5765 5766 5768 5769 5769 5770 5771 5773 5774 5775 5777
5828 5826 5823 5821 5819 5816 5814 5811 5808 5805 5801 5798 5795 5791 5787 5784 5781 5777 5774 5770 5767 5765 5763 5761 5759 5758 5757 5756 5756 5755 5756 5756 5757 5758 5759 5761 5762 5763 5764 5766 5767 5769 5770